Regional Weather Roundup
Issued by NWS

Current Version | Previous Version | Text Only | Print | Product List | Glossary On
Versions: 1 2 3 4 5 6 7 8 9 10 11 12 13 14 15 16 17 18 19 20 21 22 23 24 25 26 27 28
000
ASUS46 KPQR 211310
RWROR

OREGON REGIONAL WEATHER ROUNDUP
NATIONAL WEATHER SERVICE PORTLAND OR
500 AM PST TUE FEB 21 2017

NOTE: "FAIR" INDICATES FEW OR NO CLOUDS BELOW 12,000 FEET WITH
NO SIGNIFICANT WEATHER AND/OR OBSTRUCTIONS TO VISIBILITY.

ORZ001>013-211400-
NORTHWEST OREGON


CITY           SKY/WX    TMP DP  RH WIND       PRES   REMARKS
ASTORIA        CLOUDY    42  40  92 NW3       29.71R
NEWPORT        DRIZZLE   45  45 100 CALM      29.73R
PORTLAND       LGT RAIN  42  41  96 CALM      29.69R FOG
VANCOUVER WA   LGT RAIN  42  42 100 CALM      29.69R FOG
SCAPPOOSE      LGT RAIN  44  43  96 CALM      29.69R FOG
HILLSBORO      LGT RAIN  43  42  97 W3        29.68R
AURORA         LGT RAIN  45  42  89 N5        29.69R
MCMINNVILLE    LGT RAIN  45  43  93 W3        29.70R
SALEM          LGT RAIN  45  43  93 NW3       29.68R FOG
CORVALLIS        N/A     46  43  87 NW5       29.69R
EUGENE         LGT RAIN  44  43  96 CALM      29.69R
$$

ORZ021-028-211400-
SOUTHWEST OREGON


CITY           SKY/WX    TMP DP  RH WIND       PRES   REMARKS
NORTH BEND     CLOUDY    45  43  93 SW3       29.79R
BROOKINGS      CLOUDY    46  44  93 VRB5      29.92R
ROSEBURG       LGT RAIN  45  42  89 VRB7      29.74R FOG
SEXTON SUMMIT  SNOW      34  34 100 S15G30    29.72R VSB 1/4 WCI  24
MEDFORD        LGT RAIN  48  39  71 CALM      29.78R
$$

ORZ014>016-041-211400-
COLUMBIA GORGE


CITY           SKY/WX    TMP DP  RH WIND       PRES   REMARKS
TROUTDALE      LGT RAIN  43  41  93 NE3       29.69R
THE DALLES     LGT RAIN  39  39 100 CALM      29.70R FOG
$$

ORZ029>031-041-044-049-050-061>064-502-503-505>511-211400-
EASTERN OREGON


CITY           SKY/WX    TMP DP  RH WIND       PRES   REMARKS
REDMOND        CLOUDY    37  33  85 SE5       29.60F WCI  33
BEND           DRIZZLE   39  36  87 S5        29.60F
PRINEVILLE     CLOUDY    39  37  93 S6        29.62S WCI  35
KLAMATH FALLS  PTCLDY    38  31  76 SW13      29.76R WCI  30
LAKEVIEW       CLOUDY    34  28  80 S28G35    29.80S WCI  20
HERMISTON      LGT RAIN  41  41 100 N6        29.66R
PENDLETON      CLOUDY    40  39  97 NW10      29.63R WCI  33
JOHN DAY       RAIN      41  37  83 S20G28    29.65S
MEACHAM        CLOUDY    39  33  79 MISG      29.59R
LA GRANDE      CLOUDY    41  34  75 SW3       29.61S
BAKER CITY     CLOUDY    42  35  76 S25G35    29.64R
BURNS          CLOUDY    33  32  96 S12       29.74S WCI  24
ROME             N/A     46  31  55 S26G35    29.78R
ONTARIO        CLOUDY    44  35  70 CALM      29.79R
$$




USA.gov is the U.S. government's official web portal to all federal, state and local government web resources and services.